Regional Weather Roundup
Issued by NWS

Home | Current Version | Previous Version | Graphics & Text | Print | Product List | Glossary On
Versions: 1 2 3 4 5 6 7 8 9 10 11 12 13 14 15 16 17 18 19 20 21 22 23 24 25 26 27 28 29 30 31 32 33 34 35 36 37 38 39 40 41 42 43 44 45 46 47 48 49 50
000
ASUS44 KMEG 221210
RWRTN
TENNESSEE HOURLY STATE WEATHER ROUNDUP
NATIONAL WEATHER SERVICE MEMPHIS TN
700 AM CDT TUE JUL 22 2014

TNZ002-004-019-021-049-052-054-088>092-221300-
WEST TENNESSEE

CITY           SKY/WX    TMP DP  RH WIND       PRES   REMARKS
MEMPHIS INTL   SUNNY     72  66  81 CALM      30.09R
NWS MEMPHIS      N/A     67 N/A N/A MISG        N/A
JACKSON        PTSUNNY   69  66  90 CALM      30.10R FOG
DYERSBURG      SUNNY     68  59  73 CALM      30.11S
UNION CITY     SUNNY     70  66  88 CALM      30.10R
PARIS          SUNNY     67  65  93 CALM      30.11R
LEXINGTON      SUNNY     68  66  94 CALM      30.09R
SAVANNAH       SUNNY     69  69 100 CALM      30.10R
$$

TNZ008-025-027-028-033-062-065-066-221300-
NORTH MIDDLE TENNESSEE

CITY           SKY/WX    TMP DP  RH WIND       PRES   REMARKS
NASHVILLE      MOSUNNY   73  71  93 CALM      30.12R
DICKSON        SUNNY     70  68  94 CALM      30.11R
PORTLAND       SUNNY     72  70  94 S3        30.11R
CLARKSVILLE    SUNNY     71  66  84 CALM      30.10R
LEBANON        SUNNY     71  69  93 CALM      30.11R
SMYRNA         SUNNY     72  72 100 CALM      30.13R
MURFREESBORO   SUNNY     72  69  90 SE5       30.12R
COOKEVILLE     SUNNY     70  70 100 CALM      30.15R
GALLATIN       SUNNY     73  72  97 CALM      30.13R
CROSSVILLE     SUNNY     69  65  86 CALM      30.20R
$$

TNZ061-075-076-078-094-096-097-221300-
SOUTH MIDDLE TENNESSEE

CITY           SKY/WX    TMP DP  RH WIND       PRES   REMARKS
LEWISBURG      MOSUNNY   70  67  90 CALM      30.11R
FAYETTEVILLE   CLOUDY    72  72 100 E8G18     30.13R
TULLAHOMA      PTSUNNY   72  70  94 SE3       30.15S
WINCHESTER     PTSUNNY   72  70  94 CALM      30.15R
MCMINNVILLE    SUNNY     70  70 100 CALM      30.15R
COLUMBIA       MOSUNNY   72  72 100 CALM      30.10R
SHELBYVILLE    SUNNY     72  72 100 CALM      30.14R
$$

TNZ017-018-042-046-047-221300-
NORTHEAST TENNESSEE

CITY           SKY/WX    TMP DP  RH WIND       PRES   REMARKS
TRI CITIES     MOSUNNY   70  65  84 CALM      30.20R
ELIZABETHTON   SUNNY     66  64  94 CALM      30.20R
$$

TNZ012-013-036-069-073-074-221300-
CENTRAL EAST TENNESSEE

CITY           SKY/WX    TMP DP  RH WIND       PRES   REMARKS
KNOXVILLE      PTSUNNY   72  70  93 CALM      30.15R
OAK RIDGE      CLOUDY    71  70  96 CALM      30.17R FOG
GATLINBURG     MOSUNNY   70  66  88 CALM      30.16R
MORRISTOWN     MOSUNNY   72  66  83 E5        30.19R
$$

TNZ083-085-099-221300-
SOUTHEAST TENNESSEE

CITY           SKY/WX    TMP DP  RH WIND       PRES   REMARKS
CHATTANOOGA    PTSUNNY   74  70  87 CALM      30.14R
$$

SKY/WX REPORTED AS FAIR MEANS FEW OR NO CLOUDS BELOW
12 THOUSAND FEET.



USA.gov is the U.S. government's official web portal to all federal, state and local government web resources and services.